Location: Moscow
(55.7500°N, 37.5830°E)
Time: 13:23:01
(UTC+03:00)

S-56A Canister/Altair - Pass Details

Date: 08 December 2021
Orbit: 633 x 2499 km, 38.9° (Epoch: 17 January)

Event Time Altitude Azimuth Distance (km) Brightness Sun altitude
Rises 02:08:13 0° 251° (WSW) 4,884 - -51.5°
Reaches altitude 10° 02:12:49 10° 237° (WSW) 3,518 - -51.1°
Maximum altitude 02:18:30 20° 195° (SSW) 2,372 - -50.5°
Drops below altitude 10° 02:22:58 10° 151° (SSE) 2,660 - -50.1°
Sets 02:25:52 0° 133° (SE) 3,378 - -49.8°
